Time,TemperatureF,DewpointF,PressureIn,WindDirection,WindDirectionDegrees,WindSpeedMPH,WindSpeedGustMPH,Humidity,HourlyPrecipIn,Conditions,Clouds,dailyrainin,SoftwareType,DateUTC
2013-09-07 00:00:00,66.8,65.3,30.16,NNE,20,0.0,0.0,95,0.00,CLR,,0.00,WeatherDisplay:10.37,2013-09-07 05:00:00,
2013-09-07 00:05:00,66.8,65.3,30.16,NNE,20,0.0,0.0,95,0.00,CLR,,0.00,WeatherDisplay:10.37,2013-09-07 05:05:00,
2013-09-07 00:10:00,66.6,65.1,30.16,NNE,20,0.0,0.0,95,0.00,CLR,,0.00,WeatherDisplay:10.37,2013-09-07 05:10:00,
2013-09-07 00:15:00,66.6,65.1,30.16,NNE,20,0.0,0.0,95,0.00,CLR,,0.00,WeatherDisplay:10.37,2013-09-07 05:15:00,
2013-09-07 00:20:00,66.4,64.9,30.16,NNE,20,0.0,0.0,95,0.00,CLR,,0.00,WeatherDisplay:10.37,2013-09-07 05:20:00,
2013-09-07 00:25:00,66.4,64.9,30.16,NNE,20,0.0,0.0,95,0.00,CLR,,0.00,WeatherDisplay:10.37,2013-09-07 05:25:00,
2013-09-07 00:30:00,66.3,64.8,30.16,NNE,20,0.0,0.0,95,0.00,CLR,,0.00,WeatherDisplay:10.37,2013-09-07 05:30:00,
2013-09-07 00:35:00,66.3,64.8,30.16,NNE,20,0.0,0.0,95,0.00,CLR,,0.00,WeatherDisplay:10.37,2013-09-07 05:35:00,
2013-09-07 00:40:00,66.3,64.8,30.16,NNE,20,0.0,0.0,95,0.00,CLR,,0.00,WeatherDisplay:10.37,2013-09-07 05:40:00,
2013-09-07 00:45:00,66.3,64.8,30.16,NNE,20,0.0,0.0,95,0.00,CLR,,0.00,WeatherDisplay:10.37,2013-09-07 05:45:00,
2013-09-07 00:50:00,66.1,64.6,30.16,NNE,20,0.0,0.0,95,0.00,CLR,,0.00,WeatherDisplay:10.37,2013-09-07 05:50:00,
2013-09-07 00:55:00,66.0,64.5,30.16,NNE,20,0.0,0.0,95,0.00,CLR,,0.00,WeatherDisplay:10.37,2013-09-07 05:55:00,
2013-09-07 01:00:00,66.0,64.5,30.16,NNE,20,0.0,0.0,95,0.00,CLR,,0.00,WeatherDisplay:10.37,2013-09-07 06:00:00,
2013-09-07 01:05:00,65.8,64.3,30.16,NNE,20,0.0,0.0,95,0.00,CLR,,0.00,WeatherDisplay:10.37,2013-09-07 06:05:00,
2013-09-07 01:10:00,65.8,64.3,30.16,NNE,20,0.0,0.0,95,0.00,CLR,,0.00,WeatherDisplay:10.37,2013-09-07 06:10:00,
2013-09-07 01:15:00,65.8,64.3,30.16,NNE,20,0.0,0.0,95,0.00,CLR,,0.00,WeatherDisplay:10.37,2013-09-07 06:15:00,
2013-09-07 01:20:00,65.6,64.1,30.16,NNE,20,0.0,0.0,95,0.00,CLR,,0.00,WeatherDisplay:10.37,2013-09-07 06:20:00,
2013-09-07 01:25:00,65.6,64.1,30.16,NNE,20,0.0,0.0,95,0.00,CLR,,0.00,WeatherDisplay:10.37,2013-09-07 06:25:00,
2013-09-07 01:30:00,65.5,64.0,30.16,NNE,20,0.0,0.0,95,0.00,CLR,,0.00,WeatherDisplay:10.37,2013-09-07 06:30:00,
2013-09-07 01:35:00,65.5,64.0,30.16,NNE,20,0.0,0.0,95,0.00,CLR,,0.00,WeatherDisplay:10.37,2013-09-07 06:35:00,
2013-09-07 01:40:00,65.3,63.8,30.16,NNE,20,0.0,0.0,95,0.00,CLR,,0.00,WeatherDisplay:10.37,2013-09-07 06:40:00,
2013-09-07 01:45:00,65.3,64.1,30.16,NNE,20,0.0,0.0,96,0.00,CLR,,0.00,WeatherDisplay:10.37,2013-09-07 06:45:00,
2013-09-07 01:50:00,65.3,64.1,30.16,NNE,20,0.0,0.0,96,0.00,CLR,,0.00,WeatherDisplay:10.37,2013-09-07 06:50:00,
2013-09-07 01:55:00,65.2,64.0,30.16,NNE,20,0.0,0.0,96,0.00,CLR,,0.00,WeatherDisplay:10.37,2013-09-07 06:55:00,
2013-09-07 02:00:00,65.2,64.0,30.16,NNE,20,0.0,0.0,96,0.00,CLR,,0.00,WeatherDisplay:10.37,2013-09-07 07:00:00,
2013-09-07 02:05:00,65.2,64.0,30.16,NNE,20,0.0,0.0,96,0.00,CLR,,0.00,WeatherDisplay:10.37,2013-09-07 07:05:00,
2013-09-07 02:10:00,65.0,63.8,30.16,NNE,20,0.0,0.0,96,0.00,CLR,,0.00,WeatherDisplay:10.37,2013-09-07 07:10:00,
2013-09-07 02:15:00,65.0,63.8,30.16,NNE,20,0.0,0.0,96,0.00,CLR,,0.00,WeatherDisplay:10.37,2013-09-07 07:15:00,
2013-09-07 02:20:00,64.8,63.6,30.16,NNE,20,0.0,0.0,96,0.00,CLR,,0.00,WeatherDisplay:10.37,2013-09-07 07:20:00,
2013-09-07 02:25:00,64.8,63.6,30.16,NNE,20,0.0,0.0,96,0.00,CLR,,0.00,WeatherDisplay:10.37,2013-09-07 07:25:00,
2013-09-07 02:30:00,64.8,63.6,30.16,NNE,20,0.0,0.0,96,0.00,CLR,,0.00,WeatherDisplay:10.37,2013-09-07 07:30:00,
2013-09-07 02:35:00,64.7,63.5,30.16,NNE,20,0.0,0.0,96,0.00,CLR,,0.00,WeatherDisplay:10.37,2013-09-07 07:35:00,
2013-09-07 02:40:00,64.7,63.5,30.16,NNE,20,0.0,0.0,96,0.00,CLR,,0.00,WeatherDisplay:10.37,2013-09-07 07:40:00,
2013-09-07 02:45:00,64.7,63.5,30.15,NNE,20,0.0,0.0,96,0.00,CLR,,0.00,WeatherDisplay:10.37,2013-09-07 07:45:00,
2013-09-07 02:50:00,64.5,63.3,30.15,NNE,20,0.0,0.0,96,0.00,CLR,,0.00,WeatherDisplay:10.37,2013-09-07 07:50:00,
2013-09-07 02:55:00,64.5,63.3,30.16,NNE,20,0.0,0.0,96,0.00,CLR,,0.00,WeatherDisplay:10.37,2013-09-07 07:55:00,
2013-09-07 03:00:00,64.7,63.5,30.15,NNE,20,0.0,0.0,96,0.00,CLR,,0.00,WeatherDisplay:10.37,2013-09-07 08:00:00,
2013-09-07 03:05:00,64.7,63.5,30.15,NNE,20,0.0,0.0,96,0.00,CLR,,0.00,WeatherDisplay:10.37,2013-09-07 08:05:00,
2013-09-07 03:10:00,64.5,63.3,30.15,NNE,20,0.0,0.0,96,0.00,CLR,,0.00,WeatherDisplay:10.37,2013-09-07 08:10:00,
2013-09-07 03:15:00,64.5,63.3,30.15,NNE,20,0.0,0.0,96,0.00,CLR,,0.00,WeatherDisplay:10.37,2013-09-07 08:15:00,
2013-09-07 03:20:00,64.5,63.3,30.15,NNE,20,0.0,0.0,96,0.00,CLR,,0.00,WeatherDisplay:10.37,2013-09-07 08:20:00,
2013-09-07 03:25:00,64.5,63.3,30.15,NNE,20,0.0,0.0,96,0.00,CLR,,0.00,WeatherDisplay:10.37,2013-09-07 08:25:00,
2013-09-07 03:30:00,64.3,63.1,30.15,NNE,20,0.0,0.0,96,0.00,CLR,,0.00,WeatherDisplay:10.37,2013-09-07 08:30:00,
2013-09-07 03:35:00,64.3,63.1,30.15,NNE,20,0.0,0.0,96,0.00,CLR,,0.00,WeatherDisplay:10.37,2013-09-07 08:35:00,
2013-09-07 03:40:00,64.2,63.0,30.15,NNE,20,0.0,0.0,96,0.00,CLR,,0.00,WeatherDisplay:10.37,2013-09-07 08:40:00,
2013-09-07 03:45:00,64.2,63.0,30.16,NNE,20,0.0,0.0,96,0.00,CLR,,0.00,WeatherDisplay:10.37,2013-09-07 08:45:00,
2013-09-07 03:50:00,64.2,63.0,30.16,NNE,20,0.0,0.0,96,0.00,CLR,,0.00,WeatherDisplay:10.37,2013-09-07 08:50:00,
2013-09-07 03:55:00,64.2,63.0,30.16,NNE,20,0.0,0.0,96,0.00,CLR,,0.00,WeatherDisplay:10.37,2013-09-07 08:55:00,
2013-09-07 04:00:00,64.2,63.0,30.16,NNE,20,0.0,0.0,96,0.00,CLR,,0.00,WeatherDisplay:10.37,2013-09-07 09:00:00,
2013-09-07 04:05:00,64.0,62.8,30.16,NNE,20,0.0,0.0,96,0.00,CLR,,0.00,WeatherDisplay:10.37,2013-09-07 09:05:00,
2013-09-07 04:10:00,64.0,62.8,30.16,NNE,20,0.0,0.0,96,0.00,CLR,,0.00,WeatherDisplay:10.37,2013-09-07 09:10:00,
2013-09-07 04:15:00,64.0,62.8,30.16,NNE,20,0.0,0.0,96,0.00,CLR,,0.00,WeatherDisplay:10.37,2013-09-07 09:15:00,
2013-09-07 04:20:00,64.0,62.8,30.16,NNE,20,0.0,0.0,96,0.00,CLR,,0.00,WeatherDisplay:10.37,2013-09-07 09:20:00,
2013-09-07 04:25:00,64.0,62.8,30.16,NNE,20,0.0,0.0,96,0.00,CLR,,0.00,WeatherDisplay:10.37,2013-09-07 09:25:00,
2013-09-07 04:30:00,64.0,62.8,30.16,NNE,20,0.0,0.0,96,0.00,CLR,,0.00,WeatherDisplay:10.37,2013-09-07 09:30:00,
2013-09-07 04:35:00,64.0,62.8,30.16,NNE,20,0.0,0.0,96,0.00,CLR,,0.00,WeatherDisplay:10.37,2013-09-07 09:35:00,
2013-09-07 04:40:00,63.9,62.7,30.16,NNE,20,0.0,0.0,96,0.00,CLR,,0.00,WeatherDisplay:10.37,2013-09-07 09:40:00,
2013-09-07 04:45:00,63.9,62.7,30.16,NNE,20,0.0,0.0,96,0.00,CLR,,0.00,WeatherDisplay:10.37,2013-09-07 09:45:00,
2013-09-07 04:50:00,63.7,62.5,30.16,NNE,20,0.0,0.0,96,0.00,CLR,,0.00,WeatherDisplay:10.37,2013-09-07 09:50:00,
2013-09-07 04:55:00,63.5,62.3,30.16,NNE,20,0.0,0.0,96,0.00,CLR,,0.00,WeatherDisplay:10.37,2013-09-07 09:55:00,
2013-09-07 05:00:00,63.5,62.3,30.16,NNE,20,0.0,0.0,96,0.00,CLR,,0.00,WeatherDisplay:10.37,2013-09-07 10:00:00,
2013-09-07 05:05:00,63.4,62.2,30.16,NNE,20,0.0,0.0,96,0.00,CLR,,0.00,WeatherDisplay:10.37,2013-09-07 10:05:00,
2013-09-07 05:10:00,63.4,62.2,30.17,NNE,20,0.0,0.0,96,0.00,CLR,,0.00,WeatherDisplay:10.37,2013-09-07 10:10:00,
2013-09-07 05:15:00,63.2,62.0,30.17,NNE,20,0.0,0.0,96,0.00,CLR,,0.00,WeatherDisplay:10.37,2013-09-07 10:15:00,
2013-09-07 05:20:00,63.2,62.0,30.17,NNE,20,0.0,0.0,96,0.00,CLR,,0.00,WeatherDisplay:10.37,2013-09-07 10:20:00,
2013-09-07 05:25:00,63.1,61.9,30.17,NNE,20,0.0,0.0,96,0.00,CLR,,0.00,WeatherDisplay:10.37,2013-09-07 10:25:00,
2013-09-07 05:30:00,63.1,61.9,30.17,NNE,20,0.0,0.0,96,0.00,CLR,,0.00,WeatherDisplay:10.37,2013-09-07 10:30:00,
2013-09-07 05:35:00,63.1,61.9,30.17,NNE,20,0.0,0.0,96,0.00,CLR,,0.00,WeatherDisplay:10.37,2013-09-07 10:35:00,
2013-09-07 05:40:00,62.9,61.7,30.17,NNE,20,0.0,0.0,96,0.00,CLR,,0.00,WeatherDisplay:10.37,2013-09-07 10:40:00,
2013-09-07 05:45:00,62.9,61.7,30.17,NNE,20,0.0,0.0,96,0.00,CLR,,0.00,WeatherDisplay:10.37,2013-09-07 10:45:00,
2013-09-07 05:50:00,62.9,61.7,30.18,NNE,20,0.0,0.0,96,0.00,CLR,,0.00,WeatherDisplay:10.37,2013-09-07 10:50:00,
2013-09-07 05:55:00,62.7,61.5,30.18,NNE,20,0.0,0.0,96,0.00,CLR,,0.00,WeatherDisplay:10.37,2013-09-07 10:55:00,
2013-09-07 06:00:00,62.7,61.5,30.18,NNE,20,0.0,0.0,96,0.00,CLR,,0.00,WeatherDisplay:10.37,2013-09-07 11:00:00,
2013-09-07 06:05:00,62.7,61.5,30.18,NNE,20,0.0,0.0,96,0.00,CLR,,0.00,WeatherDisplay:10.37,2013-09-07 11:05:00,
2013-09-07 06:10:00,62.7,61.8,30.18,NNE,20,0.0,0.0,97,0.00,CLR,,0.00,WeatherDisplay:10.37,2013-09-07 11:10:00,
2013-09-07 06:15:00,62.7,61.5,30.19,NNE,20,0.0,0.0,96,0.00,CLR,,0.00,WeatherDisplay:10.37,2013-09-07 11:15:00,
2013-09-07 06:20:00,62.7,61.5,30.19,NNE,20,0.0,0.0,96,0.00,CLR,,0.00,WeatherDisplay:10.37,2013-09-07 11:20:00,
2013-09-07 06:25:00,62.6,61.4,30.19,NNE,20,0.0,0.0,96,0.00,CLR,,0.00,WeatherDisplay:10.37,2013-09-07 11:25:00,
2013-09-07 06:30:00,62.6,61.4,30.19,NNE,20,0.0,0.0,96,0.00,CLR,,0.00,WeatherDisplay:10.37,2013-09-07 11:30:00,
2013-09-07 06:35:00,62.6,61.4,30.19,NNE,20,0.0,0.0,96,0.00,CLR,,0.00,WeatherDisplay:10.37,2013-09-07 11:35:00,
2013-09-07 06:40:00,62.6,61.7,30.19,NNE,20,0.0,0.0,97,0.00,CLR,,0.00,WeatherDisplay:10.37,2013-09-07 11:40:00,
2013-09-07 06:45:00,62.6,61.7,30.19,NNE,20,0.0,0.0,97,0.00,CLR,,0.00,WeatherDisplay:10.37,2013-09-07 11:45:00,
2013-09-07 06:50:00,62.7,61.8,30.20,NNE,20,0.0,0.0,97,0.00,CLR,,0.00,WeatherDisplay:10.37,2013-09-07 11:50:00,
2013-09-07 06:55:00,62.7,61.8,30.20,NNE,20,0.0,0.0,97,0.00,CLR,,0.00,WeatherDisplay:10.37,2013-09-07 11:55:00,
2013-09-07 07:00:00,63.1,62.2,30.20,NNE,20,0.0,0.0,97,0.00,CLR,,0.00,WeatherDisplay:10.37,2013-09-07 12:00:00,
2013-09-07 07:05:00,63.2,62.3,30.20,NNE,20,0.0,0.0,97,0.00,CLR,,0.00,WeatherDisplay:10.37,2013-09-07 12:05:00,
2013-09-07 07:10:00,63.5,62.6,30.20,NNE,20,0.0,0.0,97,0.00,CLR,,0.00,WeatherDisplay:10.37,2013-09-07 12:10:00,
2013-09-07 07:15:00,63.9,63.0,30.20,NNE,20,0.0,0.0,97,0.00,CLR,,0.00,WeatherDisplay:10.37,2013-09-07 12:15:00,
2013-09-07 07:20:00,64.0,63.1,30.20,NNE,20,0.0,0.0,97,0.00,CLR,,0.00,WeatherDisplay:10.37,2013-09-07 12:20:00,
2013-09-07 07:25:00,64.2,63.3,30.20,NNE,20,0.0,0.0,97,0.00,CLR,,0.00,WeatherDisplay:10.37,2013-09-07 12:25:00,
2013-09-07 07:30:00,64.5,63.6,30.20,NNE,20,0.0,0.0,97,0.00,CLR,,0.00,WeatherDisplay:10.37,2013-09-07 12:30:00,
2013-09-07 07:35:00,65.0,64.1,30.20,NNE,20,0.0,0.0,97,0.00,CLR,,0.00,WeatherDisplay:10.37,2013-09-07 12:35:00,
2013-09-07 07:40:00,65.6,64.7,30.20,NNE,20,0.0,0.0,97,0.00,CLR,,0.00,WeatherDisplay:10.37,2013-09-07 12:40:00,
2013-09-07 07:45:00,66.0,64.8,30.20,NNE,20,0.0,0.0,96,0.00,CLR,,0.00,WeatherDisplay:10.37,2013-09-07 12:45:00,
2013-09-07 07:50:00,66.6,65.1,30.20,NNE,20,0.0,0.0,95,0.00,CLR,,0.00,WeatherDisplay:10.37,2013-09-07 12:50:00,
2013-09-07 07:55:00,67.1,65.0,30.20,NNE,20,0.0,0.0,93,0.00,CLR,,0.00,WeatherDisplay:10.37,2013-09-07 12:55:00,
2013-09-07 08:00:00,67.3,64.6,30.20,NNE,20,0.0,0.0,91,0.00,CLR,,0.00,WeatherDisplay:10.37,2013-09-07 13:00:00,
2013-09-07 08:05:00,67.9,64.9,30.20,NNE,20,0.0,0.0,90,0.00,CLR,,0.00,WeatherDisplay:10.37,2013-09-07 13:05:00,
2013-09-07 08:10:00,68.4,64.7,30.20,NNE,20,0.0,0.0,88,0.00,CLR,,0.00,WeatherDisplay:10.37,2013-09-07 13:10:00,
2013-09-07 08:15:00,68.9,64.9,30.20,NNE,20,0.0,0.0,87,0.00,CLR,,0.00,WeatherDisplay:10.37,2013-09-07 13:15:00,
2013-09-07 08:20:00,69.6,64.5,30.20,NNE,20,0.0,0.0,84,0.00,CLR,,0.00,WeatherDisplay:10.37,2013-09-07 13:20:00,
2013-09-07 08:25:00,69.4,64.7,30.20,NNE,20,0.0,0.0,85,0.00,CLR,,0.00,WeatherDisplay:10.37,2013-09-07 13:25:00,
2013-09-07 08:30:00,69.8,65.1,30.20,NNE,20,0.0,0.0,85,0.00,CLR,,0.00,WeatherDisplay:10.37,2013-09-07 13:30:00,
2013-09-07 08:35:00,69.8,64.7,30.20,NNE,20,0.0,0.0,84,0.00,CLR,,0.00,WeatherDisplay:10.37,2013-09-07 13:35:00,
2013-09-07 08:40:00,70.4,65.3,30.20,NNE,20,0.0,0.0,84,0.00,CLR,,0.00,WeatherDisplay:10.37,2013-09-07 13:40:00,
2013-09-07 08:45:00,71.5,65.0,30.20,NNE,20,0.0,0.0,80,0.00,CLR,,0.00,WeatherDisplay:10.37,2013-09-07 13:45:00,
2013-09-07 08:50:00,72.0,65.5,30.20,NNE,20,0.0,0.0,80,0.00,CLR,,0.00,WeatherDisplay:10.37,2013-09-07 13:50:00,
2013-09-07 08:55:00,72.1,65.2,30.20,NNE,20,0.0,0.0,79,0.00,CLR,,0.00,WeatherDisplay:10.37,2013-09-07 13:55:00,
2013-09-07 09:00:00,72.7,65.1,30.20,NNE,20,0.0,0.0,77,0.00,CLR,,0.00,WeatherDisplay:10.37,2013-09-07 14:00:00,
2013-09-07 09:05:00,73.0,65.4,30.20,NNE,20,0.0,0.0,77,0.00,CLR,,0.00,WeatherDisplay:10.37,2013-09-07 14:05:00,
2013-09-07 09:10:00,73.7,65.7,30.20,NNE,20,0.0,0.0,76,0.00,CLR,,0.00,WeatherDisplay:10.37,2013-09-07 14:10:00,
2013-09-07 09:15:00,74.2,65.8,30.20,NNE,20,0.0,0.0,75,0.00,CLR,,0.00,WeatherDisplay:10.37,2013-09-07 14:15:00,
2013-09-07 09:20:00,74.7,65.9,30.20,NNE,20,0.0,0.0,74,0.00,CLR,,0.00,WeatherDisplay:10.37,2013-09-07 14:20:00,
2013-09-07 09:25:00,75.3,66.8,30.20,NNE,20,0.0,0.0,75,0.00,CLR,,0.00,WeatherDisplay:10.37,2013-09-07 14:25:00,
2013-09-07 09:30:00,75.8,66.9,30.20,NNE,20,0.0,0.0,74,0.00,CLR,,0.00,WeatherDisplay:10.37,2013-09-07 14:30:00,
2013-09-07 09:35:00,76.1,66.8,30.20,NNE,22,0.0,0.0,73,0.00,CLR,,0.00,WeatherDisplay:10.37,2013-09-07 14:35:00,
2013-09-07 09:40:00,76.7,66.2,30.20,NE,50,0.0,0.0,70,0.00,CLR,,0.00,WeatherDisplay:10.37,2013-09-07 14:40:00,
2013-09-07 09:45:00,72.7,69.3,30.09,SSE,158,0.0,0.0,89,0.00,CLR,,0.00,WeatherDisplay:10.37,2013-09-07 14:45:00,
2013-09-07 09:46:00,77.2,67.1,30.20,NE,50,0.0,0.0,71,0.00,CLR,,0.00,WeatherDisplay:10.37,2013-09-07 14:46:00,
2013-09-07 09:50:00,72.5,69.4,30.09,SSE,158,0.0,0.0,90,0.00,CLR,,0.00,WeatherDisplay:10.37,2013-09-07 14:50:00,
2013-09-07 09:52:00,77.7,66.7,30.20,NE,52,0.0,0.0,69,0.00,CLR,,0.00,WeatherDisplay:10.37,2013-09-07 14:52:00,
2013-09-07 09:55:00,72.5,69.7,30.09,SSE,158,0.0,0.0,91,0.00,CLR,,0.00,WeatherDisplay:10.37,2013-09-07 14:55:00,
2013-09-07 09:57:00,77.9,66.1,30.20,NE,52,0.0,0.0,67,0.00,CLR,,0.00,WeatherDisplay:10.37,2013-09-07 14:57:00,
2013-09-07 10:00:00,72.3,69.5,30.09,SSE,158,0.0,0.0,91,0.00,CLR,,0.00,WeatherDisplay:10.37,2013-09-07 15:00:00,
2013-09-07 10:02:00,78.3,67.7,30.20,NE,52,0.0,0.0,70,0.00,CLR,,0.00,WeatherDisplay:10.37,2013-09-07 15:02:00,
2013-09-07 10:05:00,72.1,69.3,30.10,SSE,158,0.0,0.0,91,0.00,CLR,,0.00,WeatherDisplay:10.37,2013-09-07 15:05:00,
2013-09-07 10:10:00,78.7,67.2,30.20,ENE,65,0.0,1.0,68,0.00,CLR,,0.00,WeatherDisplay:10.37,2013-09-07 15:10:00,
2013-09-07 10:15:00,78.8,66.9,30.20,ENE,71,0.0,0.0,67,0.00,CLR,,0.00,WeatherDisplay:10.37,2013-09-07 15:15:00,
2013-09-07 10:20:00,79.4,68.3,30.20,SE,137,1.0,0.0,69,0.00,CLR,,0.00,WeatherDisplay:10.37,2013-09-07 15:20:00,
2013-09-07 10:25:00,79.8,67.4,30.19,SE,133,0.0,0.0,66,0.00,CLR,,0.00,WeatherDisplay:10.37,2013-09-07 15:25:00,
2013-09-07 10:30:00,80.3,67.9,30.19,SSW,203,0.0,0.0,66,0.00,CLR,,0.00,WeatherDisplay:10.37,2013-09-07 15:30:00,
2013-09-07 10:35:00,80.7,68.7,30.19,SW,221,0.0,0.0,67,0.00,CLR,,0.00,WeatherDisplay:10.37,2013-09-07 15:35:00,
2013-09-07 10:40:00,80.7,67.8,30.19,SW,222,0.0,0.0,65,0.00,CLR,,0.00,WeatherDisplay:10.37,2013-09-07 15:40:00,
2013-09-07 10:45:00,80.9,68.5,30.19,ENE,69,0.0,0.0,66,0.00,CLR,,0.00,WeatherDisplay:10.37,2013-09-07 15:45:00,
2013-09-07 10:50:00,81.2,69.6,30.18,ENE,69,0.0,0.0,68,0.00,CLR,,0.00,WeatherDisplay:10.37,2013-09-07 15:50:00,
2013-09-07 10:55:00,81.6,69.1,30.18,SSW,202,0.0,0.0,66,0.00,CLR,,0.00,WeatherDisplay:10.37,2013-09-07 15:55:00,
2013-09-07 11:00:00,82.2,68.8,30.18,SE,133,0.0,0.0,64,0.00,CLR,,0.00,WeatherDisplay:10.37,2013-09-07 16:00:00,
2013-09-07 11:05:00,82.6,68.3,30.18,SW,234,0.0,0.0,62,0.00,CLR,,0.00,WeatherDisplay:10.37,2013-09-07 16:05:00,
2013-09-07 11:10:00,83.0,69.6,30.18,SW,215,1.0,1.0,64,0.00,CLR,,0.00,WeatherDisplay:10.37,2013-09-07 16:10:00,
2013-09-07 11:15:00,83.2,69.8,30.18,South,188,1.1,1.1,64,0.00,CLR,,0.00,WeatherDisplay:10.37,2013-09-07 16:15:00,
2013-09-07 11:20:00,83.4,68.1,30.18,SSW,208,0.0,0.0,60,0.00,CLR,,0.00,WeatherDisplay:10.37,2013-09-07 16:20:00,
2013-09-07 11:25:00,83.8,68.9,30.18,West,267,1.1,1.1,61,0.00,CLR,,0.00,WeatherDisplay:10.37,2013-09-07 16:25:00,
2013-09-07 11:30:00,84.0,69.1,30.18,SE,143,0.0,0.0,61,0.00,CLR,,0.00,WeatherDisplay:10.37,2013-09-07 16:30:00,
2013-09-07 11:35:00,84.0,68.1,30.17,ESE,118,1.1,1.1,59,0.00,CLR,,0.00,WeatherDisplay:10.37,2013-09-07 16:35:00,
2013-09-07 11:40:00,83.8,69.4,30.17,SE,140,1.0,1.0,62,0.00,CLR,,0.00,WeatherDisplay:10.37,2013-09-07 16:40:00,
2013-09-07 11:45:00,70.4,68.6,30.10,SSE,158,0.0,0.0,94,0.00,CLR,,0.00,WeatherDisplay:10.37,2013-09-07 16:45:00,
2013-09-07 11:50:00,70.3,68.5,30.10,SSE,158,0.0,0.0,94,0.00,CLR,,0.00,WeatherDisplay:10.37,2013-09-07 16:50:00,
2013-09-07 11:55:00,70.3,68.5,30.10,SSE,158,0.0,0.0,94,0.00,CLR,,0.00,WeatherDisplay:10.37,2013-09-07 16:55:00,
2013-09-07 12:00:00,70.1,68.3,30.10,SSE,158,0.0,0.0,94,0.00,CLR,,0.00,WeatherDisplay:10.37,2013-09-07 17:00:00,
2013-09-07 12:05:00,70.1,68.3,30.10,SSE,158,0.0,0.0,94,0.00,CLR,,0.00,WeatherDisplay:10.37,2013-09-07 17:05:00,
2013-09-07 12:10:00,70.1,68.3,30.10,SSE,158,0.0,0.0,94,0.00,CLR,,0.00,WeatherDisplay:10.37,2013-09-07 17:10:00,
2013-09-07 12:15:00,70.1,68.3,30.10,SSE,158,0.0,0.0,94,0.00,CLR,,0.00,WeatherDisplay:10.37,2013-09-07 17:15:00,
2013-09-07 12:20:00,69.9,68.1,30.09,SSE,158,0.0,0.0,94,0.00,CLR,,0.00,WeatherDisplay:10.37,2013-09-07 17:20:00,
2013-09-07 12:25:00,69.9,68.1,30.09,SSE,158,0.0,0.0,94,0.00,CLR,,0.00,WeatherDisplay:10.37,2013-09-07 17:25:00,
2013-09-07 12:30:00,69.8,68.0,30.09,SSE,158,0.0,0.0,94,0.00,CLR,,0.00,WeatherDisplay:10.37,2013-09-07 17:30:00,
2013-09-07 12:35:00,69.6,67.8,30.09,SSE,158,0.0,0.0,94,0.00,CLR,,0.00,WeatherDisplay:10.37,2013-09-07 17:35:00,
2013-09-07 12:40:00,69.6,67.8,30.09,SSE,158,0.0,0.0,94,0.00,CLR,,0.00,WeatherDisplay:10.37,2013-09-07 17:40:00,
2013-09-07 12:45:00,69.4,67.6,30.09,SSE,158,0.0,0.0,94,0.00,CLR,,0.00,WeatherDisplay:10.37,2013-09-07 17:45:00,
2013-09-07 12:50:00,69.4,67.9,30.10,SSE,158,0.0,0.0,95,0.00,CLR,,0.00,WeatherDisplay:10.37,2013-09-07 17:50:00,
2013-09-07 12:55:00,69.4,67.9,30.10,SSE,158,0.0,0.0,95,0.00,CLR,,0.00,WeatherDisplay:10.37,2013-09-07 17:55:00,
2013-09-07 13:00:00,69.3,67.8,30.10,SSE,158,0.0,0.0,95,0.00,CLR,,0.00,WeatherDisplay:10.37,2013-09-07 18:00:00,
2013-09-07 13:05:00,69.3,67.8,30.10,SSE,158,0.0,0.0,95,0.00,CLR,,0.00,WeatherDisplay:10.37,2013-09-07 18:05:00,
2013-09-07 13:10:00,69.1,67.6,30.10,SSE,158,0.0,0.0,95,0.00,CLR,,0.00,WeatherDisplay:10.37,2013-09-07 18:10:00,
2013-09-07 13:15:00,68.9,67.4,30.10,SSE,158,0.0,0.0,95,0.00,CLR,,0.00,WeatherDisplay:10.37,2013-09-07 18:15:00,
2013-09-07 13:20:00,68.9,67.4,30.10,SSE,158,0.0,0.0,95,0.00,CLR,,0.00,WeatherDisplay:10.37,2013-09-07 18:20:00,
2013-09-07 13:25:00,68.9,67.4,30.10,SSE,158,0.0,0.0,95,0.00,CLR,,0.00,WeatherDisplay:10.37,2013-09-07 18:25:00,
2013-09-07 13:30:00,68.8,67.3,30.10,SSE,158,0.0,0.0,95,0.00,CLR,,0.00,WeatherDisplay:10.37,2013-09-07 18:30:00,
2013-09-07 13:35:00,68.6,67.1,30.10,SSE,158,0.0,0.0,95,0.00,CLR,,0.00,WeatherDisplay:10.37,2013-09-07 18:35:00,
2013-09-07 13:40:00,68.6,67.1,30.10,SSE,158,0.0,0.0,95,0.00,CLR,,0.00,WeatherDisplay:10.37,2013-09-07 18:40:00,
2013-09-07 13:45:00,68.4,66.9,30.10,SSE,158,0.0,0.0,95,0.00,CLR,,0.00,WeatherDisplay:10.37,2013-09-07 18:45:00,
2013-09-07 13:50:00,68.4,66.9,30.10,SSE,158,0.0,0.0,95,0.00,CLR,,0.00,WeatherDisplay:10.37,2013-09-07 18:50:00,
2013-09-07 13:55:00,68.3,66.8,30.10,SSE,151,0.0,0.0,95,0.00,CLR,,0.00,WeatherDisplay:10.37,2013-09-07 18:55:00,
2013-09-07 14:00:00,68.3,66.8,30.10,SSE,158,0.0,0.0,95,0.00,CLR,,0.00,WeatherDisplay:10.37,2013-09-07 19:00:00,
2013-09-07 14:05:00,68.1,66.6,30.10,SSE,157,0.0,0.0,95,0.00,CLR,,0.00,WeatherDisplay:10.37,2013-09-07 19:05:00,
2013-09-07 14:10:00,68.1,66.6,30.10,SSE,158,0.0,0.0,95,0.00,CLR,,0.00,WeatherDisplay:10.37,2013-09-07 19:10:00,
2013-09-07 14:15:00,67.9,66.4,30.10,SSE,158,0.0,0.0,95,0.00,CLR,,0.00,WeatherDisplay:10.37,2013-09-07 19:15:00,